Simultaneous Nadir Overpasses (SNOs) Predictions

Prediction of SNOs between GOES-14 and AQUA Satellite Orbit:

Table of predicted SNOs for the next 14.0 days since TLE Epoch: 12/5/2020
Index Date Time (GOES-14) GOES-14 Lat,Lon AQUA Lat,Lon Distance(km) Time Diff (sec)
1 12/05/2020 08:20:48 -0.03,-104.36 -0.58,-101.77 295.49 80
2 12/05/2020 20:42:12 0.05,-104.11 -0.54,-106.95 322.48 80
3 12/07/2020 20:32:40 0.05,-104.11 0.06,-103.99 13.41 80
4 12/09/2020 20:20:29 0.04,-104.11 0.72,-101.04 349.49 80
5 12/10/2020 08:41:45 -0.06,-104.37 0.33,-106.21 208.87 80
6 12/12/2020 08:26:53 -0.05,-104.36 -0.28,-103.24 126.92 80
7 12/12/2020 20:48:17 0.07,-104.09 -0.84,-108.43 493.56 80
8 12/14/2020 08:14:41 -0.04,-104.35 -0.90,-100.28 462.53 80
9 12/14/2020 20:36:05 0.06,-104.08 -0.22,-105.47 157.66 80
10 12/16/2020 20:26:33 0.05,-104.07 0.41,-102.51 178.19 80
11 12/17/2020 08:47:49 -0.06,-104.35 0.64,-107.68 377.94 80
